Regional Weather Roundup
Issued by NWS Little Rock, AR

Home | Current Version | Previous Version | Text Only | Print | Product List | Glossary Off
Versions: 1 2 3 4 5 6 7 8 9 10 11 12 13 14 15 16 17 18 19 20 21 22 23 24 25 26 27 28 29 30 31

000
ASUS44 KLZK 210612
RWRLZK

WEATHER ROUNDUP FOR ARKANSAS
NATIONAL WEATHER SERVICE LITTLE ROCK AR
100 AM CDT MON AUG 21 2017

NOTE: "FAIR" INDICATES FEW OR NO CLOUDS BELOW 12,000 FEET WITH NO
SIGNIFICANT WEATHER AND/OR OBSTRUCTIONS TO VISIBILITY.

ARZ001-003-010-029-210700-
NORTHWEST ARKANSAS

CITY           SKY/WX    TMP DP  RH WIND       PRES   REMARKS
FAYETTEVILLE   CLEAR     72  72 100 CALM      30.13R
6HR MIN TEMP:  72; 6HR MAX TEMP:  87;

FORT SMITH     CLEAR     76  72  87 NE3       30.07S
6HR MIN TEMP:  76; 6HR MAX TEMP:  84; 6HR PCP:  0.25;

HARRISON       CLEAR     73  72  96 CALM      30.13S
6HR MIN TEMP:  72; 6HR MAX TEMP:  84;

BENTONVILLE    CLEAR     77  72  83 S6        30.12S
6HR MIN TEMP:  77; 6HR MAX TEMP:  90;

ROGERS         CLEAR     76  74  93 SE6       30.13S
6HR MIN TEMP:  76; 6HR MAX TEMP:  88;

SILOAM SPGS    CLEAR     75  68  78 SE7       30.11R
6HR MIN TEMP:  75; 6HR MAX TEMP:  90;

HIGHFILL       CLEAR     76  73  91 CALM      30.12R
6HR MIN TEMP:  75; 6HR MAX TEMP:  88;

$$

ARZ004-005-016-210700-
NORTH CENTRAL ARKANSAS

CITY           SKY/WX    TMP DP  RH WIND       PRES   REMARKS
BATESVILLE     CLEAR     73  72  94 CALM      30.10S
6HR MIN TEMP:  73; 6HR MAX TEMP:  82;

FLIPPIN        CLEAR     73  68  83 CALM      30.08S
6HR MIN TEMP:  73; 6HR MAX TEMP:  84;

MTN HOME       CLEAR     73  73 100 CALM      30.10S
6HR MIN TEMP:  73; 6HR MAX TEMP:  83;

$$

ARZ040-041-210700-
WEST CENTRAL ARKANSAS

CITY           SKY/WX    TMP DP  RH WIND       PRES   REMARKS
MENA           CLEAR     73  73 100 CALM      30.13R
MOUNT IDA      CLEAR     76  73  91 CALM      30.09R
6HR MIN TEMP:  76; 6HR MAX TEMP:  88;

$$

ARZ009-017-025-026-028-210700-
NORTHEAST ARKANSAS

CITY           SKY/WX    TMP DP  RH WIND       PRES   REMARKS
CORNING        FAIR      77  77 100 SE5       30.08S
JONESBORO      CLEAR     75  75 100 NE3       30.08S
6HR MIN TEMP:  75; 6HR MAX TEMP:  83;

NEWPORT        CLEAR     73  72  96 CALM      30.08S
6HR MIN TEMP:  73; 6HR MAX TEMP:  81;

WALNUT RIDGE   PTCLDY    73  72  94 CALM      30.08S
6HR MIN TEMP:  73; 6HR MAX TEMP:  81;

BLYTHEVILLE    PTCLDY    80  79  96 S3        30.08F HX  88
6HR MIN TEMP:  77; 6HR MAX TEMP:  86;

$$

ARZ022-023-033-042-044-210700-
CENTRAL ARKANSAS

CITY           SKY/WX    TMP DP  RH WIND       PRES   REMARKS
LITTLE ROCK    PTCLDY    79  77  94 SE3       30.08R
6HR MIN TEMP:  78; 6HR MAX TEMP:  91;

N LITTLE ROCK    N/A     81  75  81 CALM      30.08R HX  87
6HR MIN TEMP:  81; 6HR MAX TEMP:  92;

JACKSONVILLE   PTCLDY    79  79  99 CALM      30.08R
6HR MIN TEMP:  79; 6HR MAX TEMP:  91;

CONWAY           N/A     77  75  94 CALM      30.06S
SEARCY         PTCLDY    76  76 100 N3        30.11R
6HR MIN TEMP:  75; 6HR MAX TEMP:  86;

HOT SPRINGS    CLEAR     79  75  87 CALM      30.09S
6HR MIN TEMP:  79; 6HR MAX TEMP:  92;

RUSSELLVILLE   CLEAR     77  76  96 CALM      30.08R
6HR MIN TEMP:  77; 6HR MAX TEMP:  85;

CLINTON        MOCLDY    73  73 100 CALM      30.10S FOG
$$

ARZ036-210700-
EAST ARKANSAS

CITY           SKY/WX    TMP DP  RH WIND       PRES   REMARKS
WEST MEMPHIS   CLEAR     77  75  93 S3        30.07S
6HR MIN TEMP:  76; 6HR MAX TEMP:  84;

$$

ARZ050-053-066-070-073-210700-
SOUTHWEST ARKANSAS

CITY           SKY/WX    TMP DP  RH WIND       PRES   REMARKS
ARKADELPHIA    FAIR      75  74  96 CALM      30.08S
6HR MIN TEMP:  75; 6HR MAX TEMP:  92; 6HR PCP: TRACE;

CAMDEN         PTCLDY    77  73  88 CALM      30.07S
TEXARKANA      CLEAR     74  74 100 CALM      30.09R
6HR MIN TEMP:  74; 6HR MAX TEMP:  77; 6HR PCP: TRACE;

EL DORADO      CLOUDY    75  74  96 CALM      30.08R FOG
6HR MIN TEMP:  75; 6HR MAX TEMP:  80;

DE QUEEN       CLEAR     74  74 100 CALM      30.08R
6HR MIN TEMP:  74; 6HR MAX TEMP:  92;

$$

ARZ056-057-069-210700-
SOUTHEAST ARKANSAS

CITY           SKY/WX    TMP DP  RH WIND       PRES   REMARKS
PINE BLUFF     PTCLDY    79  77  94 CALM      30.08R
6HR MIN TEMP:  79; 6HR MAX TEMP:  90;

MONTICELLO     CLEAR     79  76  90 CALM      30.09R
6HR MIN TEMP:  79; 6HR MAX TEMP:  92;


$$






USA.gov is the U.S. government's official web portal to all federal, state and local government web resources and services.